TimeEDT,TemperatureF,Dew PointF,Humidity,Sea Level PressureIn,VisibilityMPH,Wind Direction,Wind SpeedMPH,Gust SpeedMPH,PrecipitationIn,Events,Conditions,WindDirDegrees,DateUTC
12:03 AM,62.6,62.6,100,30.05,1.0,Calm,Calm,-,N/A,,Clear,0,2013-10-01 04:03:00
12:08 AM,62.6,62.6,100,30.05,0.8,Calm,Calm,-,N/A,,Clear,0,2013-10-01 04:08:00
12:13 AM,62.6,62.6,100,30.05,1.8,NNW,1.2,-,N/A,,Clear,330,2013-10-01 04:13:00
12:18 AM,62.6,62.6,100,30.05,6.0,Calm,Calm,-,N/A,,Clear,0,2013-10-01 04:18:00
12:23 AM,62.6,60.8,94,30.05,9.0,Calm,Calm,-,N/A,,Clear,0,2013-10-01 04:23:00
12:58 AM,60.8,60.6,99,30.07,10.0,North,2.3,-,N/A,,Clear,360,2013-10-01 04:58:00
1:43 AM,60.8,60.8,100,30.05,9.0,West,1.2,-,N/A,,Clear,280,2013-10-01 05:43:00
1:48 AM,60.8,60.8,100,30.05,9.0,Calm,Calm,-,N/A,,Clear,0,2013-10-01 05:48:00
2:08 AM,59.0,59.0,100,30.06,10.0,NNW,3.5,-,N/A,,Clear,340,2013-10-01 06:08:00
2:33 AM,60.8,60.8,100,30.06,8.0,Calm,Calm,-,N/A,,Clear,0,2013-10-01 06:33:00
2:38 AM,60.8,60.8,100,30.06,2.0,Calm,Calm,-,N/A,,Clear,0,2013-10-01 06:38:00
2:48 AM,60.8,60.8,100,30.06,2.0,NNW,2.3,-,N/A,,Clear,330,2013-10-01 06:48:00
2:53 AM,60.8,59.0,94,30.06,3.0,NNW,2.3,-,N/A,,Clear,340,2013-10-01 06:53:00
2:58 AM,59.9,59.7,99,30.06,7.0,NNW,2.3,-,N/A,,Clear,340,2013-10-01 06:58:00
3:43 AM,59.0,59.0,100,30.06,10.0,North,1.2,-,N/A,,Partly Cloudy,360,2013-10-01 07:43:00
5:35 AM,60.8,60.8,100,30.07,3.0,Calm,Calm,-,N/A,,Overcast,0,2013-10-01 09:35:00
5:55 AM,60.4,60.4,100,30.09,10.0,Calm,Calm,-,N/A,,Overcast,0,2013-10-01 09:55:00
6:23 AM,60.8,60.8,100,30.09,5.0,Calm,Calm,-,N/A,,Mostly Cloudy,0,2013-10-01 10:23:00
6:34 AM,59.0,59.0,100,30.10,4.0,North,-9999.0,-,N/A,,Overcast,0,2013-10-01 10:34:00
6:43 AM,59.0,59.0,100,30.10,10.0,North,1.2,-,N/A,,Overcast,360,2013-10-01 10:43:00
6:55 AM,60.8,60.8,100,30.11,3.0,Calm,Calm,-,N/A,,Mostly Cloudy,0,2013-10-01 10:55:00
6:58 AM,59.9,59.9,100,30.11,10.0,NNW,2.3,-,N/A,,Overcast,340,2013-10-01 10:58:00
7:13 AM,60.8,60.8,100,30.11,3.0,Calm,Calm,-,N/A,,Mostly Cloudy,0,2013-10-01 11:13:00
7:18 AM,59.0,59.0,100,30.11,1.5,Calm,Calm,-,N/A,,Scattered Clouds,0,2013-10-01 11:18:00
7:23 AM,59.0,59.0,100,30.11,0.8,Calm,Calm,-,N/A,,Scattered Clouds,0,2013-10-01 11:23:00
7:28 AM,59.0,59.0,100,30.11,0.5,ESE,1.2,-,N/A,Fog,Fog,110,2013-10-01 11:28:00
7:33 AM,59.0,59.0,100,30.11,0.8,SE,1.2,-,N/A,,Partly Cloudy,130,2013-10-01 11:33:00
7:38 AM,59.0,59.0,100,30.11,2.5,Calm,Calm,-,N/A,,Clear,0,2013-10-01 11:38:00
7:53 AM,59.0,59.0,100,30.12,8.0,Calm,Calm,-,N/A,,Clear,0,2013-10-01 11:53:00
7:58 AM,59.2,59.2,100,30.13,10.0,Calm,Calm,-,N/A,,Clear,0,2013-10-01 11:58:00
8:58 AM,62.6,62.6,100,30.13,10.0,Calm,Calm,-,N/A,,Clear,0,2013-10-01 12:58:00
9:58 AM,71.1,62.8,75,30.14,10.0,Variable,2.3,-,N/A,,Clear,0,2013-10-01 13:58:00
10:58 AM,75.0,64.2,69,30.14,10.0,Variable,2.3,-,N/A,,Clear,0,2013-10-01 14:58:00
11:58 AM,79.0,64.0,60,30.14,10.0,Variable,3.5,-,N/A,,Clear,0,2013-10-01 15:58:00
12:58 PM,81.1,64.6,57,30.12,10.0,South,5.8,-,N/A,,Clear,170,2013-10-01 16:58:00
1:58 PM,82.6,63.7,53,30.09,10.0,ENE,3.5,-,N/A,,Mostly Cloudy,70,2013-10-01 17:58:00
2:48 PM,84.2,64.4,51,30.06,10.0,Variable,5.8,-,N/A,,Mostly Cloudy,0,2013-10-01 18:48:00
2:58 PM,83.3,63.5,51,30.06,10.0,NE,5.8,-,N/A,,Mostly Cloudy,50,2013-10-01 18:58:00
3:23 PM,84.2,62.6,48,30.05,10.0,ENE,3.5,-,N/A,,Scattered Clouds,60,2013-10-01 19:23:00
3:58 PM,84.0,62.6,48,30.05,10.0,Variable,1.2,-,N/A,,Clear,0,2013-10-01 19:58:00
4:58 PM,83.7,63.5,51,30.04,10.0,SW,2.3,-,N/A,,Clear,230,2013-10-01 20:58:00
5:58 PM,84.7,63.7,49,30.04,10.0,SSE,2.3,-,N/A,,Clear,160,2013-10-01 21:58:00
6:58 PM,76.5,69.4,79,30.05,10.0,SE,2.3,-,N/A,,Clear,130,2013-10-01 22:58:00
7:58 PM,69.1,66.4,91,30.06,10.0,SE,1.2,-,N/A,,Clear,140,2013-10-01 23:58:00
8:58 PM,66.6,66.2,99,30.07,10.0,Calm,Calm,-,N/A,,Clear,0,2013-10-02 00:58:00
9:23 PM,64.4,64.4,100,30.08,4.0,Calm,Calm,-,N/A,,Clear,0,2013-10-02 01:23:00
9:33 PM,64.4,64.4,100,30.08,10.0,Calm,Calm,-,N/A,,Clear,0,2013-10-02 01:33:00
9:43 PM,64.4,64.4,100,30.08,8.0,Calm,Calm,-,N/A,,Clear,0,2013-10-02 01:43:00
9:53 PM,64.4,64.4,100,30.09,3.0,Calm,Calm,-,N/A,,Clear,0,2013-10-02 01:53:00
9:58 PM,64.4,64.4,100,30.10,4.0,Calm,Calm,-,N/A,,Partly Cloudy,0,2013-10-02 01:58:00
10:18 PM,64.4,64.4,100,30.09,4.0,Calm,Calm,-,N/A,,Mostly Cloudy,0,2013-10-02 02:18:00
10:23 PM,64.4,64.4,100,30.09,1.5,ESE,1.2,-,N/A,,Scattered Clouds,120,2013-10-02 02:23:00
10:28 PM,64.4,64.4,100,30.10,2.0,East,1.2,-,N/A,,Scattered Clouds,80,2013-10-02 02:28:00
10:33 PM,64.4,62.6,94,30.10,7.0,ENE,1.2,-,N/A,,Partly Cloudy,70,2013-10-02 02:33:00
10:43 PM,64.4,64.4,100,30.10,10.0,Calm,Calm,-,N/A,,Partly Cloudy,0,2013-10-02 02:43:00
10:58 PM,64.2,63.9,99,30.11,7.0,Calm,Calm,-,N/A,,Clear,0,2013-10-02 02:58:00
11:03 PM,62.6,62.6,100,30.10,1.0,Calm,Calm,-,N/A,,Clear,0,2013-10-02 03:03:00
11:08 PM,62.6,62.6,100,30.10,0.5,Calm,Calm,-,N/A,Fog,Fog,0,2013-10-02 03:08:00
11:23 PM,62.6,62.6,100,30.11,0.2,Calm,Calm,-,N/A,Fog,Fog,0,2013-10-02 03:23:00
11:28 PM,62.6,62.6,100,30.11,0.5,Calm,Calm,-,N/A,Fog,Fog,0,2013-10-02 03:28:00
11:33 PM,62.6,62.6,100,30.11,0.8,Calm,Calm,-,N/A,,Clear,0,2013-10-02 03:33:00
11:43 PM,62.6,62.6,100,30.11,0.5,Calm,Calm,-,N/A,Fog,Fog,0,2013-10-02 03:43:00
11:48 PM,62.6,62.6,100,30.11,0.8,Calm,Calm,-,N/A,,Clear,0,2013-10-02 03:48:00
11:53 PM,62.6,60.8,94,30.11,1.0,Calm,Calm,-,N/A,,Clear,0,2013-10-02 03:53:00
11:58 PM,62.6,62.6,100,30.12,1.0,Calm,Calm,-,N/A,,Clear,0,2013-10-02 03:58:00